Date String (YYYY-MM-DD hh:mm:ss) UTC,Instrument flags,Ambient pressure (hPa),Sample flow (lpm),Bypass flow (lpm),Sample temperature (°C),Ambient temperature (°C),ASC tube jacket temperature (°C),LED temperature (°C),Box temperature (°C),Sample RH (%),Span deviation,Mass concentration (μg/m³),Mass concentration (μg/m³),Mass concentration (μg/m³)
DateTimeUTC,F1_M11,P_M11,Q1_M11,Q2_M11,T1_M11,T2_M11,T3_M11,T4_M11,T5_M11,U1_M11,ZSPAN_M11,X0_M11,X2_M11,X1_M11
2023-05-15 02:00:00,,0842.6,5.01,0.00,30.2,28.5,00.0,38.7,31.8,27.6,0000.0,0002.30,0001.51,0001.18
2023-05-15 02:01:00,,0842.6,5.01,0.00,30.2,28.5,00.0,38.7,31.7,27.6,0000.0,0002.33,0001.49,0001.18
2023-05-15 02:02:00,,0842.7,5.00,0.00,30.2,28.5,00.0,38.7,31.7,27.7,0000.0,0002.27,0001.45,0001.17
2023-05-15 02:03:00,,0842.7,4.98,0.00,30.2,28.5,00.0,38.7,31.7,27.7,0000.0,0002.23,0001.41,0001.15
2023-05-15 02:04:00,,0842.7,5.01,0.00,30.2,28.5,00.0,38.7,31.7,27.6,0000.0,0002.16,0001.41,0001.13
2023-05-15 02:05:00,,0842.7,5.00,0.00,30.2,28.5,00.0,38.7,31.7,27.5,0000.0,0002.06,0001.36,0001.09
2023-05-15 02:06:00,,0842.8,5.00,0.00,30.2,28.5,00.0,38.7,31.7,27.6,0000.0,0002.04,0001.32,0001.06
2023-05-15 02:07:00,,0842.8,5.00,0.00,30.2,28.5,00.0,38.7,31.7,27.6,0000.0,0001.99,0001.29,0001.03
2023-05-15 02:08:00,,0842.8,5.00,0.00,30.2,28.5,00.0,38.7,31.7,27.6,0000.0,0001.89,0001.24,0001.00
2023-05-15 02:09:00,,0842.8,4.98,0.00,30.1,28.5,00.0,38.7,31.7,27.6,0000.0,0001.81,0001.19,0000.97
2023-05-15 02:10:00,,0842.8,5.00,0.00,30.1,28.4,00.0,38.7,31.6,27.5,0000.0,0001.82,0001.18,0000.96
2023-05-15 02:11:00,,0842.8,5.00,0.00,30.1,28.4,00.0,38.6,31.6,27.5,0000.0,0001.79,0001.15,0000.94
2023-05-15 02:12:00,,0842.8,5.01,0.00,30.1,28.4,00.0,38.6,31.6,27.6,0000.0,0001.57,0001.09,0000.91
2023-05-15 02:13:00,,0842.8,5.00,0.00,30.1,28.4,00.0,38.6,31.6,27.6,0000.0,0001.58,0001.08,0000.89
2023-05-15 02:14:00,,0842.9,4.99,0.00,30.1,28.4,00.0,38.6,31.6,27.6,0000.0,0001.54,0001.05,0000.87
2023-05-15 02:15:00,,0842.9,5.00,0.00,30.1,28.4,00.0,38.6,31.6,27.6,0000.0,0001.46,0001.00,0000.85
2023-05-15 02:16:00,,0842.9,4.99,0.00,30.1,28.4,00.0,38.6,31.6,27.6,0000.0,0001.45,0000.99,0000.84
2023-05-15 02:17:00,,0843.0,5.00,0.00,30.1,28.4,00.0,38.6,31.6,27.6,0000.0,0001.50,0001.01,0000.83
2023-05-15 02:18:00,,0842.9,5.01,0.00,30.1,28.4,00.0,38.6,31.5,27.6,0000.0,0001.46,0001.00,0000.82
2023-05-15 02:19:00,,0843.0,5.01,0.00,30.1,28.4,00.0,38.6,31.5,27.6,0000.0,0001.50,0001.01,0000.83
2023-05-15 02:20:00,,0843.0,5.00,0.00,30.1,28.4,00.0,38.6,31.5,27.6,0000.0,0001.56,0001.02,0000.82
2023-05-15 02:21:00,,0842.9,4.99,0.00,30.1,28.4,00.0,38.6,31.5,27.6,0000.0,0001.51,0001.01,0000.80
2023-05-15 02:22:00,,0842.9,5.01,0.00,30.0,28.3,00.0,38.5,31.5,27.7,0000.0,0001.43,0000.99,0000.79
2023-05-15 02:23:00,,0842.9,5.00,0.00,30.1,28.3,00.0,38.5,31.5,27.7,0000.0,0001.43,0000.98,0000.79
2023-05-15 02:24:00,,0842.9,5.00,0.00,30.0,28.4,00.0,38.5,31.5,27.7,0000.0,0001.37,0000.98,0000.80
2023-05-15 02:25:00,,0842.9,4.99,0.00,30.0,28.4,00.0,38.5,31.5,27.7,0000.0,0001.39,0001.00,0000.82
2023-05-15 02:26:00,,0842.9,5.01,0.00,30.0,28.3,00.0,38.5,31.5,27.8,0000.0,0001.43,0001.03,0000.84
2023-05-15 02:27:00,,0842.9,5.00,0.00,30.0,28.3,00.0,38.5,31.5,27.7,0000.0,0001.62,0001.04,0000.86
2023-05-15 02:28:00,,0843.0,4.99,0.00,30.0,28.3,00.0,38.5,31.5,27.8,0000.0,0001.72,0001.04,0000.88
2023-05-15 02:29:00,,0843.0,4.99,0.00,30.0,28.3,00.0,38.5,31.5,27.8,0000.0,0001.70,0001.05,0000.91
2023-05-15 02:30:00,,0843.1,5.01,0.00,30.0,28.3,00.0,38.5,31.5,27.8,0000.0,0001.69,0001.05,0000.92
2023-05-15 02:31:00,,0843.1,5.01,0.00,30.0,28.3,00.0,38.5,31.5,27.8,0000.0,0001.66,0001.06,0000.94
2023-05-15 02:32:00,,0843.1,4.98,0.00,30.0,28.3,00.0,38.5,31.5,27.7,0000.0,0001.67,0001.07,0000.95
2023-05-15 02:33:00,,0843.1,5.00,0.00,30.0,28.3,00.0,38.5,31.5,27.7,0000.0,0001.65,0001.05,0000.95
2023-05-15 02:34:00,,0843.1,5.01,0.00,30.0,28.3,00.0,38.5,31.5,27.6,0000.0,0001.63,0001.04,0000.93
2023-05-15 02:35:00,,0843.1,4.99,0.00,30.0,28.3,00.0,38.5,31.5,27.6,0000.0,0001.58,0001.01,0000.91
2023-05-15 02:36:00,,0843.1,4.99,0.00,30.0,28.2,00.0,38.5,31.5,27.6,0000.0,0001.62,0001.00,0000.89
2023-05-15 02:37:00,,0843.1,5.00,0.00,30.0,28.2,00.0,38.4,31.4,27.6,0000.0,0001.64,0000.99,0000.87
2023-05-15 02:38:00,,0843.1,5.00,0.00,29.9,28.2,00.0,38.4,31.4,27.6,0000.0,0001.48,0000.98,0000.86
2023-05-15 02:39:00,,0843.1,5.00,0.00,29.9,28.2,00.0,38.4,31.4,27.6,0000.0,0001.27,0000.96,0000.85
2023-05-15 02:40:00,,0843.1,5.00,0.00,29.9,28.2,00.0,38.4,31.4,27.6,0000.0,0001.25,0000.96,0000.85
2023-05-15 02:41:00,,0843.1,4.98,0.00,29.9,28.2,00.0,38.4,31.4,27.7,0000.0,0001.25,0000.95,0000.85
2023-05-15 02:42:00,,0843.2,5.02,0.00,29.9,28.2,00.0,38.4,31.4,27.8,0000.0,0001.25,0000.95,0000.84
2023-05-15 02:43:00,,0843.2,5.00,0.00,29.9,28.2,00.0,38.4,31.4,27.7,0000.0,0001.23,0000.94,0000.84
2023-05-15 02:44:00,,0843.2,4.99,0.00,29.9,28.2,00.0,38.4,31.4,27.7,0000.0,0001.26,0000.97,0000.87
2023-05-15 02:45:00,,0843.1,5.02,0.00,29.9,28.2,00.0,38.4,31.4,27.6,0000.0,0001.29,0001.00,0000.90
2023-05-15 02:46:00,,0843.2,4.99,0.00,29.9,28.2,00.0,38.4,31.4,27.6,0000.0,0001.32,0001.03,0000.93
2023-05-15 02:47:00,,0843.1,4.98,0.00,29.9,28.2,00.0,38.4,31.4,27.6,0000.0,0001.41,0001.03,0000.94
2023-05-15 02:48:00,,0843.2,5.00,0.00,29.9,28.2,00.0,38.4,31.4,27.6,0000.0,0001.35,0001.02,0000.95
2023-05-15 02:49:00,,0843.2,5.02,0.00,29.9,28.1,00.0,38.4,31.4,27.7,0000.0,0001.43,0001.06,0000.97
2023-05-15 02:50:00,,0843.2,4.99,0.00,29.9,28.1,00.0,38.3,31.4,27.7,0000.0,0001.41,0001.06,0000.98
2023-05-15 02:51:00,,0843.2,5.00,0.00,29.8,28.1,00.0,38.3,31.4,27.7,0000.0,0001.43,0001.08,0000.99
2023-05-15 02:52:00,,0843.3,5.01,0.00,29.8,28.1,00.0,38.3,31.3,27.8,0000.0,0001.49,0001.11,0001.00
2023-05-15 02:53:00,,0843.2,4.99,0.00,29.8,28.1,00.0,38.3,31.3,27.8,0000.0,0001.49,0001.12,0001.01
2023-05-15 02:54:00,,0843.3,5.00,0.00,29.8,28.1,00.0,38.3,31.3,27.9,0000.0,0001.54,0001.14,0001.02
2023-05-15 02:55:00,,0843.3,5.00,0.00,29.8,28.1,00.0,38.3,31.4,27.8,0000.0,0001.60,0001.15,0001.03
2023-05-15 02:56:00,,0843.3,5.00,0.00,29.8,28.2,00.0,38.3,31.4,27.8,0000.0,0001.77,0001.19,0001.04
2023-05-15 02:57:00,,0843.4,5.00,0.00,29.8,28.2,00.0,38.3,31.4,27.8,0000.0,0001.79,0001.21,0001.06
2023-05-15 02:58:00,,0843.3,4.99,0.00,29.8,28.2,00.0,38.3,31.4,27.8,0000.0,0001.75,0001.27,0001.08
2023-05-15 02:59:00,,0843.3,5.00,0.00,29.8,28.2,00.0,38.3,31.4,27.7,0000.0,0001.85,0001.31,0001.10
